Salt To Saint Relay 2014

Saturday, September 20, 2014 8:00 AM (GMT-7) - Final results

Race info
Sport: Cycling - road
Location: St. George, UT, United States
Start type: Interval wave start
Wave grouping: By distance or category
Racers: 82
Timed on: iPad
Timed with: Webscorer PRO
Updated: Wednesday, September 24, 2014 2:29 PM (GMT-7)
Organized by: Endurance Utah LLC
Race website: Salttosaint.com

Contact organizer

Use this form to send an email to the organizer.

Your name
Your email address
Confirm email address
Message to organizer
Send

Place Bib Racer name Category Finish time
1815Live Well p/b Bountiful Bicycle8 Rider Men 18:05:42--100%24.68%23.91%
2427WinSum Sports4 Rider Men 18:54:21+48:39+4.48%95.71%21.30%20.51%
3422Select Group Realty4 Rider Men 19:37:58+1:32:16+8.50%92.17%18.28%17.45%
4818ON UR LEFT8 Rider Men 19:39:33+1:33:51+8.64%92.04%18.17%17.34%
5819Over The Hill8 Rider Men 19:43:10+1:37:28+8.98%91.76%17.91%17.08%
6400Abbey of Layton4 Rider Men 19:47:34+1:41:52+9.38%91.42%17.61%16.78%
7821Rusty Cranks8 Rider Men 19:56:55+1:51:13+10.24%90.71%16.96%16.12%
8811Fishbowl- Team 28 Rider Men 20:09:55+2:04:13+11.44%89.73%16.06%15.21%
9810Fishbowl8 Rider Men 20:19:06+2:13:24+12.29%89.06%15.42%14.57%
10423Simplicity Laser4 Rider Men 20:30:42+2:25:00+13.36%88.22%14.62%13.75%
10804Crank-n-CarbSport8 Rider Men 20:30:42+2:25:00+13.36%88.22%14.62%13.75%
12425Team ONYX4 Rider Men 20:50:01+2:44:19+15.13%86.85%13.28%12.40%
13824Shut Up Legs8 Rider Mixed 20:53:30+2:47:48+15.46%86.61%13.03%12.16%
14809Fezzari's Chaingang8 Rider Mixed 21:14:03+3:08:21+17.35%85.22%11.61%10.72%
15820RIU Crew8 Rider Mixed 21:30:23+3:24:41+18.85%84.14%10.48%9.57%
16832The Cyclepathics8 Rider Mixed 21:32:09+3:26:27+19.02%84.02%10.35%9.45%
17419Ride Like You Stole It4 Rider Men 21:42:48+3:37:06+20.00%83.34%9.61%8.70%
18411JBT VeloTech4 Rider Men 21:55:24+3:49:42+21.16%82.54%8.74%7.82%
19822Salty Saints8 Rider Men 21:56:11+3:50:29+21.23%82.49%8.69%7.76%
20106Sundance / Cul de Sac No1Open 21:56:35+3:50:53+21.27%82.46%8.66%7.73%
2114WhippleSolo, Men 21:56:55+3:51:13+21.30%82.44%8.64%7.71%
22813Giddyup38 Rider Mixed 21:59:21+3:53:39+21.52%82.29%8.47%7.54%
23105Los Derailers LocosOpen 22:07:12+4:01:30+22.24%81.80%7.92%6.99%
24800Cadence8 Rider Men 22:18:30+4:12:48+23.28%81.11%7.14%6.20%
25823Shift Heads8 Rider Men 22:18:38+4:12:56+23.30%81.11%7.13%6.19%
26806DERAILED8 Rider Mixed 22:27:31+4:21:49+24.12%80.57%6.51%5.57%
27812Fundamental Church of the Derailleur8 Rider Men 22:32:32+4:26:50+24.58%80.27%6.16%5.22%
28829TDs Flyers8 Rider Mixed 22:35:04+4:29:22+24.81%80.12%5.99%5.04%
29414Mingo4 Rider Men 22:47:02+4:41:20+25.91%79.42%5.16%4.20%
30418Rain Bird ArcSitioOpen 22:51:45+4:46:03+26.35%79.15%4.83%3.87%
31416Pedalphiles4 Rider Men 22:57:55+4:52:13+26.92%78.79%4.40%3.44%
32100AdProOpen 22:59:34+4:53:52+27.07%78.70%4.29%3.32%
33410Half Fast4 Rider Men 23:01:07+4:55:25+27.21%78.61%4.18%3.21%
34401Air Pirates4 Rider Men 23:05:16+4:59:34+27.59%78.37%3.89%2.92%
35413Late to the party4 Rider Men 23:14:28+5:08:46+28.44%77.86%3.25%2.28%
36420Rockwell Roulette4 Rider Mixed 23:20:27+5:14:45+28.99%77.53%2.84%1.86%
37101Dungarees for the Jungle ChiefOpen 23:38:18+5:32:36+30.63%76.55%1.60%0.61%
38404Draft Dodgers4 Rider Men 23:40:32+5:34:50+30.84%76.43%1.45%0.45%
393ContiSolo, Men 23:45:16+5:39:34+31.28%76.18%1.12%0.12%
404DuemigSolo, Men 23:48:38+5:42:56+31.59%76.00%0.88%-0.12%
41803Christine and the Brokenlegs8 Rider Mixed 24:05:15+5:59:33+33.12%75.12%-0.27%-1.28%
42417Racer & the Three Petes4 Rider Men 24:12:20+6:06:38+33.77%74.76%-0.76%-1.78%
43426Warner4 Rider Men 24:19:40+6:13:58+34.44%74.38%-1.27%-2.29%
44802Chain Gang8 Rider Mixed 24:21:48+6:16:06+34.64%74.27%-1.42%-2.44%
45814Last Ones Chosen8 Rider Mixed 24:25:27+6:19:45+34.98%74.09%-1.67%-2.70%
46833TreeHouse Interactive8 Rider Mixed 24:26:40+6:20:58+35.09%74.03%-1.75%-2.78%
47409Gearly Beloved4 Rider Mixed 24:29:25+6:23:43+35.34%73.89%-1.94%-2.98%
48817Not Getting Any Younger8 Rider Mixed 24:45:26+6:39:44+36.82%73.09%-3.06%-4.10%
49826Solstice Psychling Sloths8 Rider Mixed 24:52:08+6:46:26+37.44%72.76%-3.52%-4.57%
50421Salted Taints4 Rider Men 25:05:09+6:59:27+38.63%72.13%-4.42%-5.48%
51816More Salt than Saint8 Rider Men 25:07:59+7:02:17+38.90%72.00%-4.62%-5.68%
52805Crazy 8s8 Rider Mixed 25:10:53+7:05:11+39.16%71.86%-4.82%-5.88%
53825Smile Adventures8 Rider Mixed 25:15:21+7:09:39+39.57%71.65%-5.13%-6.20%
54831The Billy Bob Bikers8 Rider Mixed 25:28:05+7:22:23+40.75%71.05%-6.02%-7.09%
55828Spoke'n Hot Babes8 Rider Women 25:32:01+7:26:19+41.11%70.87%-6.29%-7.36%
56827Sore Bottom Cyclists 28 Rider Mixed 25:37:53+7:32:11+41.65%70.60%-6.69%-7.77%
57415PB Cycle 14 Rider Mixed 25:46:18+7:40:36+42.42%70.21%-7.28%-8.36%
58412Kinetic Fitness Cycle4 Rider Women 25:48:42+7:43:00+42.65%70.10%-7.45%-8.53%
59107Team HantipOpen 26:00:19+7:54:37+43.72%69.58%-8.25%-9.35%
60834Westfield Bikernauts8 Rider Mixed 26:09:54+8:04:12+44.60%69.16%-8.92%-10.02%
61830Team KingOpen 26:14:21+8:08:39+45.01%68.96%-9.22%-10.33%
62402Bennett Bikers4 Rider Mixed 26:21:43+8:16:01+45.69%68.64%-9.74%-10.85%
63104In Harm's WayOpen 26:23:35+8:17:53+45.86%68.56%-9.87%-10.98%
64102Enjoy the Ride 1Open 26:40:27+8:34:45+47.41%67.84%-11.04%-12.16%
64103Enjoy The Ride 2Open 26:40:27+8:34:45+47.41%67.84%-11.04%-12.16%
667MasonSolo, Men 26:54:36+8:48:54+48.72%67.24%-12.02%-13.15%
67835Wheels of Torture8 Rider Mixed 26:56:06+8:50:24+48.85%67.18%-12.12%-13.26%
68108The Young & the Rest of UsOpen 27:14:23+9:08:41+50.54%66.43%-13.39%-14.54%
69807Downshifted8 Rider Mixed 27:19:43+9:14:01+51.03%66.21%-13.76%-14.91%
70808El Capitan8 Rider Mixed 27:19:45+9:14:03+51.03%66.21%-13.76%-14.91%
7113StumSolo, Men 28:41:04+10:35:22+58.52%63.08%-19.40%-20.61%
72836Wonder Wheels8 Rider Women 28:42:50+10:37:08+58.68%63.02%-19.53%-20.74%
73406Flat-Tireds 2 - Flatter Than Flat-Tireds4 Rider Women 29:07:16+11:01:34+60.93%62.14%-21.22%-22.45%
74407Flat-Tireds 3 - Incredibly Flat-Tireds4 Rider Women 29:07:17+11:01:35+60.94%62.14%-21.22%-22.45%
74408Flat-Tireds 4 - Really Flat-Tireds4 Rider Women 29:07:17+11:01:35+60.94%62.14%-21.22%-22.45%
76405Flat Tireds 1 - Totally Flat Tireds4 Rider Mixed 29:07:19+11:01:37+60.94%62.14%-21.22%-22.45%
779HuebnerSolo, Men 30:50:51+12:45:09+70.48%58.66%-28.41%-29.71%
78424Team Cadence4 Rider Men 31:45:28+13:39:46+75.51%56.98%-32.20%-33.53%
-1AndersonSolo, Men DNF-----
-5HaderlieSolo, Men DNF-----
-15WilliamsonSolo, Men DNF-----
-403Contour4 Rider Men DNF-----